Regional Weather Roundup
Issued by NWS

Home | Current Version | Previous Version | Text Only | Print | Product List | Glossary Off
Versions: 1 2 3 4 5 6 7 8 9 10 11 12 13 14 15 16 17 18 19 20 21 22 23 24 25 26 27 28 29 30 31 32 33 34 35 36 37 38 39 40 41 42 43 44 45 46 47 48 49 50

000
ASUS43 KLOT 060510
RWRIL

ILLINOIS REGIONAL WEATHER ROUNDUP
NATIONAL WEATHER SERVICE CHICAGO/ROMEOVILLE IL
1100 PM CST THU MAR 05 2015

NOTE: "FAIR" INDICATES FEW OR NO CLOUDS BELOW 12,000 FEET WITH NO
SIGNIFICANT WEATHER AND/OR OBSTRUCTIONS TO VISIBILITY.

* THESE STATIONS ARE NOT UNDER NWS QUALITY CONTROL. THEY ALSO MAY NOT
  REPORT WEATHER SUCH AS PRECIPITATION OR FOG.

ILZ001-002-007-009-015-016-024-060600-
NORTHWEST ILLINOIS

CITY           SKY/WX    TMP DP  RH WIND       PRES   REMARKS
MOLINE         MOCLDY     2  -5  72 CALM      30.55S
STERLING*      PTCLDY     3   0  85 CALM      30.53F
SAVANNA*       MOCLDY    -3  -8  80 S3        30.54F
$$

ILZ003-004-008-010-011-017-018-060600-
NORTH CENTRAL ILLINOIS

CITY           SKY/WX    TMP DP  RH WIND       PRES   REMARKS
ROCKFORD       PTCLDY     2  -6  69 S5        30.53F WCI  -8
FREEPORT*      PTCLDY     1  -7  70 SW5       30.52F WCI  -9
ROCHELLE*      PTCLDY    -6 -10  81 SW6       30.54S WCI -18
DE KALB*       PTCLDY     3  -5  68 SW5       30.51F WCI  -6
PERU*          PTCLDY     6  -1  75 SW5       30.56F WCI  -3
$$

ILZ005-006-012>014-019>023-060600-
NORTHEAST ILLINOIS

CITY           SKY/WX    TMP DP  RH WIND       PRES   REMARKS
CHICAGO-OHARE  PTCLDY     7  -2  66 W8        30.53F WCI  -6
CHICAGO-MIDWAY PTCLDY    10  -1  61 W8        30.55S WCI  -2
AURORA         PTCLDY     3  -6  66 SW5       30.54S WCI  -6
LANSING*       PTCLDY     6  -1  71 W6        30.56S WCI  -4
JOLIET*        PTCLDY     3  -3  75 CALM      30.56S
WAUKEGAN       PTCLDY     0  -8  69 SW5       30.50F WCI -10
DUPAGE AIRPORT PTCLDY     3  -4  72 SW6       30.52F WCI  -8
KANKAKEE*      MOCLDY    -2  -6  81 CALM      30.58S
WHEELING       PTCLDY     8  -2  63 SW5       30.54F WCI   0
MORRIS*        MOCLDY     3  -2  79 SW5       30.56S WCI  -6
ROMEOVILLE*    PTCLDY     3  -3  73 W6        30.54F WCI  -8
NORTHERLY ISL    N/A     12   1  61 W9          N/A  WCI   0
$$

LMZ740>746-060600-
SOUTHERN LAKE MICHIGAN

STATION/POSITION SKY/WX   TEMP    WIND        PRES    VSBY  WAVE
                          AIR SEA DIR/SP/G                  HT/PER
                          (F)     (DEG/KT/KT) (MB)    (MI)  (FT/S)
WAUKEGAN HARBOR             9                   N/A
HARRISON CRIB              12     250/ 13/ 16   N/A
BURNHAM HARBOR             12     250/  8/ 12   N/A
CALUMET HARBOR             10     240/  6/ 10 1032.9S
MICHIGAN CITY               9     190/ 11/ 11   N/A
$$

ILZ025>027-034>036-040-047-049-050-058-095>099-060600-
WEST-CENTRAL ILLINOIS

CITY           SKY/WX    TMP DP  RH WIND       PRES   REMARKS
QUINCY         PTCLDY     9  -1  64 SE8       30.54F WCI  -3
GALESBURG*     MOCLDY     0  -4  84 SE3       30.54F
MACOMB*        MOCLDY     3  -1  81 S3        30.57F
JACKSONVILLE*  PTCLDY     7  -1  67 SE5       30.58F WCI  -1
PITTSFIELD*    FAIR      10   3  72 SE3       30.57F
$$

ILZ028>032-037-038-041>044-048-051>054-059>061-060600-
CENTRAL ILLINOIS

CITY           SKY/WX    TMP DP  RH WIND       PRES   REMARKS
PONTIAC        MOCLDY    -3  -7  82 CALM      30.58F
BLOOMINGTON    MOCLDY     4  -1  79 CALM      30.55F
DECATUR        MOCLDY     1  -6  72 CALM      30.58F
PEORIA         MOCLDY     5  -3  69 CALM      30.57F
LACON*         PTCLDY     1  -5  76 CALM      30.57F
LINCOLN*       MOCLDY     3  -1  81 S5        30.61F WCI  -6
SPRINGFIELD    PTCLDY     2  -5  72 E3        30.58F
TAYLORVILLE    PTCLDY     5   1  85 CALM      30.58F
$$

ILZ033-039-045-046-055>057-062-063-060600-
EAST-CENTRAL ILLINOIS

CITY           SKY/WX    TMP DP  RH WIND       PRES   REMARKS
CHAMPAIGN      FAIR       0  -5  79 SW3       30.57F
DANVILLE*      PTCLDY    -2  -6  83 CALM      30.55S
RANTOUL*       PTCLDY    -2  -6  83 W5        30.57F WCI -12
MATTOON        FAIR       1  -3  83 CALM      30.57S
PARIS*         MOCLDY    -2  -6  84 CALM      30.59F
$$

ILZ079-100>102-060600-
SOUTHWEST ILLINOIS

CITY           SKY/WX    TMP DP  RH WIND       PRES   REMARKS
ALTON          PTCLDY     9   2  73 SE3       30.60S
BELLEVILLE     CLEAR     14   8  78 E3        30.59F
CAHOKIA*       CLEAR     16   7  67 E3        30.61S
SPARTA*        PTCLDY    12   6  77 E3        30.61F
$$

ILZ064>066-069>071-074>076-080>082-084>086-088>090-092>094-060600-
SOUTH-CENTRAL ILLINOIS

CITY           SKY/WX    TMP DP  RH WIND       PRES   REMARKS
CARBONDALE     PTCLDY     9   5  84 CALM      30.62S
CAIRO*         MOCLDY    16   8  69 NE6       30.62S WCI   7
EFFINGHAM*     MOCLDY     3  -2  77 CALM      30.61F
MARION         PTCLDY     9   5  85 CALM      30.62S
MT. VERNON     PTCLDY     7   0  72 CALM      30.60F
CENTRALIA*     PTCLDY    10   5  82 CALM      30.60F
SALEM*         PTCLDY    11   4  71 CALM      30.60F
METROPOLIS*    PTCLDY     8   5  87 CALM      30.61S
$$

ILZ067-068-072-073-078-083-087-091-060600-
SOUTHEAST ILLINOIS

CITY           SKY/WX    TMP DP  RH WIND       PRES   REMARKS
LAWRENCEVILLE  PTCLDY     7   1  76 NW5       30.62S WCI  -2
FLORA*         PTCLDY     8   3  81 NW3       30.62S
FAIRFIELD*     PTCLDY    10   3  75 N3        30.61S
HARRISBURG*    MOCLDY     4  -1  81 CALM      30.64R
ROBINSON*      PTCLDY     1  -3  86 SW3       30.62S
CARMI*         PTCLDY     6   2  83 CALM      30.62S
$$

ABBREVIATIONS USED IN REMARKS
   TC - TEMPERATURE IN CELSIUS
  WCI - WIND CHILL INDEX
   HX - HEAT INDEX
  VSB - VISIBILITY
$$




USA.gov is the U.S. government's official web portal to all federal, state and local government web resources and services.